WAT4032 KSSI-KDAB

Flight info

Callsign WAT4032
Flight time 0h 43m
Altitude 4000
Route SIROC T208 SAHND/N0145F070 T208 FOXAM
Aircraft L18/M-SDF/S

Departure

Time 2026-05-06 19:04
Airport St Simons Island Airport (KSSI)

Arrival

Time 2026-05-06 19:47
Airport Daytona Beach International Airport (KDAB)
Time Latitude Longitude Altitude Speed Heading
2026-05-06 18:52 31.15488 -81.38692 20 ft 0 kts 152°
2026-05-06 18:59 31.15484 -81.38690 20 ft 3 kts 185°
2026-05-06 18:59 31.15506 -81.38738 19 ft 12 kts 330°
2026-05-06 19:00 31.15580 -81.38782 19 ft 11 kts 331°
2026-05-06 19:00 31.15618 -81.38837 19 ft 7 kts 247°
2026-05-06 19:00 31.15593 -81.38876 19 ft 4 kts 187°
2026-05-06 19:00 31.15579 -81.38873 19 ft 0 kts 153°
2026-05-06 19:02 31.15568 -81.38867 20 ft 16 kts 154°
2026-05-06 19:02 31.15294 -81.38711 20 ft 70 kts 154°
2026-05-06 19:02 31.14764 -81.38416 129 ft 88 kts 153°
2026-05-06 19:03 31.14149 -81.38071 231 ft 115 kts 152°
2026-05-06 19:03 31.13380 -81.37517 343 ft 141 kts 140°
2026-05-06 19:03 31.12889 -81.36465 439 ft 163 kts 99°
2026-05-06 19:03 31.13264 -81.35166 592 ft 182 kts 52°
2026-05-06 19:04 31.14430 -81.34519 772 ft 196 kts
2026-05-06 19:04 31.15770 -81.34893 1000 ft 200 kts 340°
2026-05-06 19:04 31.17094 -81.35322 1220 ft 199 kts 354°
2026-05-06 19:04 31.18459 -81.35589 1438 ft 200 kts 348°
2026-05-06 19:05 31.19822 -81.36027 1660 ft 200 kts 347°
2026-05-06 19:05 31.21147 -81.36506 1877 ft 201 kts 341°
2026-05-06 19:05 31.22443 -81.37099 2097 ft 200 kts 338°
2026-05-06 19:05 31.23628 -81.37965 2316 ft 199 kts 317°
2026-05-06 19:06 31.24234 -81.39328 2499 ft 193 kts 264°
2026-05-06 19:06 31.23507 -81.40493 2712 ft 182 kts 200°
2026-05-06 19:06 31.22278 -81.40360 2947 ft 179 kts 160°
2026-05-06 19:06 31.21082 -81.39996 3173 ft 178 kts 173°
2026-05-06 19:07 31.19871 -81.39718 3384 ft 179 kts 164°
2026-05-06 19:07 31.18770 -81.39008 3497 ft 187 kts 138°
2026-05-06 19:07 31.18165 -81.37624 3541 ft 195 kts 111°
2026-05-06 19:07 31.17309 -81.36433 3570 ft 196 kts 154°
2026-05-06 19:08 31.15996 -81.36222 3607 ft 196 kts 195°
2026-05-06 19:08 31.14894 -81.37105 3659 ft 197 kts 229°
2026-05-06 19:08 31.13956 -81.38299 3715 ft 199 kts 220°
2026-05-06 19:08 31.12782 -81.39151 3761 ft 200 kts 205°
2026-05-06 19:09 31.11464 -81.39711 3811 ft 201 kts 200°
2026-05-06 19:09 31.10100 -81.40034 3842 ft 204 kts 179°
2026-05-06 19:09 31.08688 -81.39813 3898 ft 204 kts 172°
2026-05-06 19:09 31.07272 -81.39503 3946 ft 205 kts 171°
2026-05-06 19:10 31.05859 -81.39339 3990 ft 205 kts 180°
2026-05-06 19:10 31.04420 -81.39403 3999 ft 205 kts 193°
2026-05-06 19:10 31.03197 -81.40208 3989 ft 206 kts 230°
2026-05-06 19:10 31.02774 -81.41756 3996 ft 209 kts 273°
2026-05-06 19:11 31.03365 -81.43311 4010 ft 211 kts 298°
2026-05-06 19:11 31.03578 -81.44930 3987 ft 209 kts 255°
2026-05-06 19:11 31.02751 -81.46279 3986 ft 208 kts 213°
2026-05-06 19:11 31.01363 -81.46689 4007 ft 209 kts 184°
2026-05-06 19:12 30.99893 -81.46633 4006 ft 211 kts 176°
2026-05-06 19:12 30.98448 -81.46362 3996 ft 213 kts 168°
2026-05-06 19:12 30.97001 -81.45943 3997 ft 213 kts 168°
2026-05-06 19:12 30.95538 -81.45549 3995 ft 213 kts 169°
2026-05-06 19:13 30.94102 -81.45144 3993 ft 213 kts 167°
2026-05-06 19:13 30.92668 -81.44648 3993 ft 214 kts 163°
2026-05-06 19:13 30.91304 -81.43980 3993 ft 215 kts 154°
2026-05-06 19:13 30.90054 -81.42994 3992 ft 216 kts 141°
2026-05-06 19:14 30.89027 -81.41719 3995 ft 218 kts 128°
2026-05-06 19:14 30.88222 -81.40215 3996 ft 217 kts 129°
2026-05-06 19:14 30.87304 -81.38840 3997 ft 218 kts 125°
2026-05-06 19:14 30.86360 -81.37464 3996 ft 215 kts 143°
2026-05-06 19:15 30.85010 -81.36824 3990 ft 211 kts 180°
2026-05-06 19:15 30.83566 -81.37080 4006 ft 210 kts 193°
2026-05-06 19:15 30.82108 -81.37368 4003 ft 211 kts 191°
2026-05-06 19:15 30.80669 -81.37708 4001 ft 211 kts 192°
2026-05-06 19:16 30.79230 -81.38002 4000 ft 210 kts 192°
2026-05-06 19:16 30.77793 -81.38340 3999 ft 207 kts 192°
2026-05-06 19:16 30.76412 -81.38747 3994 ft 204 kts 205°
2026-05-06 19:16 30.75249 -81.39658 4005 ft 202 kts 216°
2026-05-06 19:17 30.74028 -81.40502 4002 ft 202 kts 207°
2026-05-06 19:17 30.72858 -81.41372 4002 ft 201 kts 218°
2026-05-06 19:17 30.71664 -81.42200 4005 ft 200 kts 207°
2026-05-06 19:17 30.70415 -81.42956 4006 ft 200 kts 210°
2026-05-06 19:18 30.69179 -81.43700 4006 ft 200 kts 207°
2026-05-06 19:18 30.67951 -81.44455 4007 ft 200 kts 209°
2026-05-06 19:18 30.66691 -81.45184 4006 ft 200 kts 204°
2026-05-06 19:18 30.65396 -81.45785 4005 ft 200 kts 199°
2026-05-06 19:19 30.64011 -81.45880 3995 ft 203 kts 168°
2026-05-06 19:19 30.62735 -81.45184 4016 ft 203 kts 153°
2026-05-06 19:19 30.61450 -81.44505 4011 ft 205 kts 162°
2026-05-06 19:19 30.60068 -81.44008 4011 ft 208 kts 167°
2026-05-06 19:20 30.58630 -81.43652 4009 ft 210 kts 175°
2026-05-06 19:20 30.57176 -81.43596 4011 ft 211 kts 182°
2026-05-06 19:20 30.55684 -81.43561 4009 ft 213 kts 180°
2026-05-06 19:20 30.54210 -81.43549 4008 ft 213 kts 181°
2026-05-06 19:21 30.52703 -81.43514 4008 ft 214 kts 180°
2026-05-06 19:21 30.51217 -81.43508 4008 ft 214 kts 181°
2026-05-06 19:21 30.49712 -81.43476 4007 ft 214 kts 181°
2026-05-06 19:21 30.48219 -81.43471 4007 ft 215 kts 180°
2026-05-06 19:22 30.46727 -81.43446 4007 ft 215 kts 181°
2026-05-06 19:22 30.45219 -81.43439 4009 ft 215 kts 180°
2026-05-06 19:22 30.43730 -81.43422 4009 ft 215 kts 181°
2026-05-06 19:22 30.42239 -81.43413 4009 ft 215 kts 180°
2026-05-06 19:23 30.40741 -81.43405 4009 ft 215 kts 181°
2026-05-06 19:23 30.39229 -81.43393 4007 ft 215 kts 180°
2026-05-06 19:23 30.37736 -81.43413 4006 ft 214 kts 185°
2026-05-06 19:23 30.36282 -81.43765 4006 ft 213 kts 192°
2026-05-06 19:24 30.34795 -81.43670 3995 ft 216 kts 163°
2026-05-06 19:24 30.33413 -81.42977 4011 ft 216 kts 159°
2026-05-06 19:24 30.32032 -81.42292 4009 ft 216 kts 157°
2026-05-06 19:24 30.30657 -81.41585 4007 ft 216 kts 159°
2026-05-06 19:25 30.29256 -81.40887 4007 ft 217 kts 157°
2026-05-06 19:25 30.27885 -81.40198 4007 ft 217 kts 159°
2026-05-06 19:25 30.26488 -81.39497 4007 ft 217 kts 157°
2026-05-06 19:25 30.25102 -81.38812 4007 ft 217 kts 159°
2026-05-06 19:26 30.23703 -81.38108 4007 ft 217 kts 158°
2026-05-06 19:26 30.22314 -81.37427 4008 ft 217 kts 158°
2026-05-06 19:26 30.20931 -81.36732 4008 ft 217 kts 158°
2026-05-06 19:26 30.19547 -81.36056 4008 ft 217 kts 158°
2026-05-06 19:27 30.18152 -81.35362 4008 ft 217 kts 159°
2026-05-06 19:27 30.16767 -81.34682 4006 ft 217 kts 158°
2026-05-06 19:27 30.15370 -81.33993 4006 ft 217 kts 159°
2026-05-06 19:27 30.13986 -81.33313 4008 ft 217 kts 158°
2026-05-06 19:28 30.12591 -81.32631 4009 ft 216 kts 159°
2026-05-06 19:28 30.11190 -81.32014 4006 ft 216 kts 167°
2026-05-06 19:28 30.09694 -81.32001 4012 ft 214 kts 189°
2026-05-06 19:28 30.08213 -81.32211 4016 ft 214 kts 187°
2026-05-06 19:29 30.06736 -81.32423 4012 ft 214 kts 188°
2026-05-06 19:29 30.05240 -81.32616 4013 ft 214 kts 186°
2026-05-06 19:29 30.03772 -81.32870 4013 ft 214 kts 189°
2026-05-06 19:29 30.02301 -81.32707 3998 ft 217 kts 159°
2026-05-06 19:30 30.00940 -81.31937 4020 ft 215 kts 159°
2026-05-06 19:30 29.99501 -81.31466 4017 ft 215 kts 166°
2026-05-06 19:30 29.98073 -81.30872 4015 ft 216 kts 161°
2026-05-06 19:30 29.96641 -81.30370 4016 ft 216 kts 165°
2026-05-06 19:31 29.95216 -81.29810 4016 ft 216 kts 162°
2026-05-06 19:31 29.93762 -81.29302 4017 ft 216 kts 164°
2026-05-06 19:31 29.90882 -81.28252 4017 ft 216 kts 163°
2026-05-06 19:32 29.89457 -81.27718 4017 ft 216 kts 164°
2026-05-06 19:32 29.88015 -81.27222 4018 ft 216 kts 163°
2026-05-06 19:32 29.86564 -81.26693 4018 ft 216 kts 165°
2026-05-06 19:32 29.85097 -81.26183 4017 ft 216 kts 163°
2026-05-06 19:33 29.83668 -81.25675 4017 ft 216 kts 165°
2026-05-06 19:33 29.82240 -81.25174 4016 ft 216 kts 163°
2026-05-06 19:33 29.80784 -81.24667 4016 ft 216 kts 165°
2026-05-06 19:33 29.79343 -81.24158 4016 ft 216 kts 163°
2026-05-06 19:34 29.77890 -81.23659 4016 ft 216 kts 164°
2026-05-06 19:34 29.76458 -81.23154 4013 ft 216 kts 164°
2026-05-06 19:34 29.75001 -81.22659 4012 ft 216 kts 164°
2026-05-06 19:34 29.73565 -81.22157 4012 ft 216 kts 164°
2026-05-06 19:35 29.72115 -81.21667 4012 ft 216 kts 164°
2026-05-06 19:35 29.70668 -81.21169 4013 ft 216 kts 165°
2026-05-06 19:35 29.69213 -81.20676 4013 ft 217 kts 164°
2026-05-06 19:35 29.67763 -81.20184 4012 ft 217 kts 165°
2026-05-06 19:36 29.66323 -81.19695 4012 ft 217 kts 164°
2026-05-06 19:36 29.64873 -81.19209 4013 ft 217 kts 165°
2026-05-06 19:36 29.63412 -81.18714 4014 ft 217 kts 164°
2026-05-06 19:36 29.61967 -81.18236 4015 ft 217 kts 164°
2026-05-06 19:37 29.60496 -81.17741 4016 ft 217 kts 165°
2026-05-06 19:37 29.59045 -81.17265 4016 ft 217 kts 164°
2026-05-06 19:37 29.57595 -81.16782 4016 ft 217 kts 165°
2026-05-06 19:37 29.56145 -81.16305 4016 ft 217 kts 164°
2026-05-06 19:38 29.54696 -81.15829 4016 ft 217 kts 165°
2026-05-06 19:38 29.53213 -81.15482 4011 ft 216 kts 178°
2026-05-06 19:38 29.51747 -81.15800 4016 ft 216 kts 202°
2026-05-06 19:38 29.50485 -81.16758 4023 ft 216 kts 216°
2026-05-06 19:39 29.49136 -81.17488 4008 ft 216 kts 192°
2026-05-06 19:39 29.47672 -81.17268 4006 ft 217 kts 155°
2026-05-06 19:39 29.46364 -81.16393 4024 ft 216 kts 146°
2026-05-06 19:39 29.45158 -81.15368 4019 ft 217 kts 145°
2026-05-06 19:40 29.44085 -81.14144 4001 ft 219 kts 120°
2026-05-06 19:40 29.43247 -81.12708 4012 ft 216 kts 142°
2026-05-06 19:40 29.41898 -81.12001 4024 ft 215 kts 161°
2026-05-06 19:40 29.40453 -81.11533 4020 ft 216 kts 169°
2026-05-06 19:41 29.38952 -81.11430 4014 ft 216 kts 185°
2026-05-06 19:41 29.37444 -81.11568 4020 ft 216 kts 184°
2026-05-06 19:41 29.35932 -81.11710 4020 ft 217 kts 184°
2026-05-06 19:41 29.34422 -81.11829 4019 ft 217 kts 185°
2026-05-06 19:42 29.32917 -81.11994 4019 ft 217 kts 184°
2026-05-06 19:42 29.31408 -81.12127 4018 ft 217 kts 186°
2026-05-06 19:42 29.29896 -81.12287 4017 ft 215 kts 184°
2026-05-06 19:42 29.28461 -81.12429 4003 ft 198 kts 186°
2026-05-06 19:43 29.27137 -81.12561 4003 ft 183 kts 185°
2026-05-06 19:43 29.25894 -81.12692 3983 ft 174 kts 185°
2026-05-06 19:43 29.24708 -81.12811 3947 ft 170 kts 185°
2026-05-06 19:43 29.23547 -81.12946 3719 ft 166 kts 187°
2026-05-06 19:44 29.22355 -81.13116 3339 ft 174 kts 189°
2026-05-06 19:44 29.21183 -81.13379 2929 ft 168 kts 193°
2026-05-06 19:44 29.20077 -81.13708 2537 ft 161 kts 194°
2026-05-06 19:44 29.19017 -81.13945 2175 ft 150 kts 182°
2026-05-06 19:45 29.18042 -81.13738 1983 ft 133 kts 151°
2026-05-06 19:45 29.17409 -81.13038 1611 ft 125 kts 126°
2026-05-06 19:45 29.16955 -81.12149 1282 ft 132 kts 116°
2026-05-06 19:45 29.16649 -81.11211 950 ft 112 kts 107°
2026-05-06 19:46 29.16528 -81.10381 696 ft 101 kts 95°
2026-05-06 19:46 29.16582 -81.09632 524 ft 88 kts 80°
2026-05-06 19:46 29.16777 -81.09005 386 ft 81 kts 68°
2026-05-06 19:46 29.17007 -81.08437 235 ft 76 kts 69°
2026-05-06 19:47 29.17206 -81.07898 120 ft 72 kts 67°
2026-05-06 19:47 29.17411 -81.07406 44 ft 63 kts 68°
2026-05-06 19:47 29.17566 -81.07000 31 ft 42 kts 65°
2026-05-06 19:47 29.17658 -81.06760 31 ft 24 kts 65°
2026-05-06 19:48 29.17722 -81.06619 32 ft 17 kts 63°
2026-05-06 19:48 29.17778 -81.06493 32 ft 16 kts 61°
2026-05-06 19:48 29.17858 -81.06458 32 ft 14 kts 340°
2026-05-06 19:48 29.17937 -81.06467 32 ft 11 kts 53°
2026-05-06 19:49 29.17974 -81.06380 32 ft 13 kts 65°
2026-05-06 19:49 29.18017 -81.06277 32 ft 16 kts 65°
2026-05-06 19:49 29.18069 -81.06144 32 ft 20 kts 66°
2026-05-06 19:49 29.18129 -81.05995 32 ft 20 kts 65°
2026-05-06 19:50 29.18188 -81.05852 32 ft 19 kts 65°
2026-05-06 19:50 29.18243 -81.05713 33 ft 18 kts 65°
2026-05-06 19:50 29.18297 -81.05579 33 ft 18 kts 68°
2026-05-06 19:50 29.18350 -81.05460 33 ft 12 kts 40°
2026-05-06 19:51 29.18442 -81.05465 33 ft 16 kts 336°
2026-05-06 19:51 29.18549 -81.05528 33 ft 15 kts 298°
2026-05-06 19:51 29.18570 -81.05623 33 ft 10 kts 329°
2026-05-06 19:51 29.18582 -81.05669 33 ft 2 kts 245°
2026-05-06 19:52 29.18581 -81.05672 33 ft 0 kts 245°